Temperature
15 14 14 14 14 13 12 11 11 10 10 10 9 9 9 8 8 8 8 8 8 8 7 8 8 8 8 9 9 10 10 11 11 11 10 9 9 9 9 10 11 10 10
17 15 14 14 14 14 13 12 11 11 10 10 10 9 9 8 8 8 8 8 8 7 7 7 8 8 8 8 9 9 10 11 11 11 10 10 8 8 9 9 9 9 9
17 16 15 14 14 14 14 13 12 12 11 10 10 9 9 9 8 8 8 8 8 7 7 7 7 7 8 8 8 9 10 10 10 10 10 10 8 8 8 8 8 8 8
17 16 15 15 14 14 14 14 13 12 11 10 10 9 9 9 8 8 8 8 8 8 8 7 7 7 8 8 8 9 10 10 10 9 9 9 8 7 7 7 7 7 7
17 16 15 15 14 14 14 14 14 13 12 11 10 10 9 9 8 8 8 8 8 8 8 8 8 8 8 8 8 9 10 10 9 9 9 8 7 6 6 6 6 7 7
18 16 15 15 14 14 14 14 14 13 12 11 11 10 9 9 9 9 9 9 9 9 9 9 9 8 8 8 8 9 9 9 9 9 9 9 7 6 6 6 6 6 6
18 17 15 15 14 14 14 14 14 13 13 12 11 10 10 9 10 10 10 10 9 9 9 9 9 9 9 9 8 9 9 9 9 9 9 9 7 6 6 6 6 6 6
18 17 16 15 14 14 14 14 13 13 13 12 12 11 10 10 10 10 10 10 10 10 10 9 9 9 9 9 9 9 9 9 9 9 9 8 7 7 7 7 6 6 6
17 17 16 15 14 13 13 13 13 13 13 12 12 11 11 11 11 11 10 10 10 10 10 9 9 9 9 9 9 9 9 9 9 9 9 8 8 7 7 7 7 7 6
16 16 16 15 14 13 13 13 13 13 12 12 12 12 12 11 11 11 11 10 10 10 10 10 9 9 9 9 9 9 9 9 8 8 8 8 8 8 7 7 7 7 7
16 16 15 15 14 13 13 12 12 12 12 12 12 12 12 11 11 11 11 10 10 10 10 10 10 9 9 9 9 9 9 9 8 8 8 8 8 8 8 7 7 7 7
17 17 16 15 14 13 13 12 12 12 12 12 12 12 12 11 11 11 11 10 10 10 10 10 10 10 9 9 9 9 9 9 9 8 8 8 8 8 8 7 7 7 7
18 17 17 15 14 13 13 12 12 12 12 12 12 12 12 11 11 11 11 11 10 10 10 10 10 10 10 9 9 9 9 9 8 8 8 8 8 8 8 7 7 7 6
17 17 17 16 15 14 13 12 12 12 12 12 12 12 12 11 11 11 11 10 10 10 10 10 10 9 9 9 9 9 9 8 8 8 8 8 8 7 7 7 7 7 6
17 17 17 16 15 14 13 13 12 12 12 12 12 12 12 11 11 11 11 10 10 10 10 9 9 9 9 9 9 9 8 8 8 8 8 8 7 7 7 7 7 7 6
17 17 16 16 16 15 14 13 13 13 12 12 12 12 11 11 11 11 11 10 10 10 9 9 9 8 8 8 9 9 8 8 8 8 8 7 7 7 7 7 7 6 6
18 18 17 16 15 15 14 14 13 13 12 12 12 12 11 11 11 11 10 10 10 9 9 9 8 8 8 8 8 8 8 8 8 7 7 7 7 7 7 6 6 6 6
18 18 17 16 15 15 14 14 13 13 12 12 12 11 11 11 11 10 10 10 10 9 9 8 8 8 8 8 8 8 8 7 7 7 7 7 7 7 6 6 6 6 5
19 18 17 16 16 15 14 13 13 12 12 11 11 11 11 10 10 10 10 10 9 9 8 8 8 8 8 8 8 7 7 7 7 7 7 7 7 7 6 6 6 6 5
19 18 17 16 16 15 13 12 11 11 11 10 10 10 10 10 10 9 9 9 9 8 8 8 8 8 8 7 7 7 7 7 7 7 7 7 7 7 6 6 6 5 5
18 18 17 16 16 14 13 13 12 12 11 11 11 10 10 9 9 8 8 8 8 8 8 8 7 7 7 7 6 6 6 7 7 7 7 7 7 7 7 6 6 5 5
18 17 17 16 16 15 14 14 13 12 11 11 10 10 9 9 8 8 8 7 7 7 7 7 7 6 6 6 5 5 4 6 7 8 8 8 8 7 6 6 6 6 5
17 16 16 16 15 15 14 13 12 11 11 10 10 10 10 9 8 8 7 7 7 6 6 6 6 6 6 5 5 4 4 4 6 6 7 7 7 7 6 6 6 5 5
16 16 15 15 14 14 13 13 12 12 11 11 11 10 10 9 8 8 7 7 6 6 6 6 5 5 5 4 4 4 4 3 3 4 5 5 5 5 5 5 5 5 4
15 15 15 14 13 13 12 12 11 11 11 10 10 9 9 9 8 8 7 7 6 6 6 5 5 5 4 4 4 3 3 2 2 1 1 3 3 3 3 3 3 3 3
14 14 14 13 13 12 12 11 11 10 10 10 9 9 9 8 8 7 7 6 6 6 5 5 5 4 4 4 3 3 2 2 1 1 -0 0 1 2 2 2 2 2 2
Wind_Speed
10 21 26 24 22 20 19 17 16 15 14 13 13 12 12 12 12 12 12 13 13 13 14 14 15 15 16 16 16 16 17 17 17 19 20 19 20 20 20 19 19 18 20
16 27 28 26 24 22 21 19 17 16 15 14 13 13 12 12 11 11 12 12 12 12 13 13 14 14 15 15 15 15 16 16 16 17 18 17 17 19 19 19 19 17 19
19 28 28 28 26 24 22 20 19 18 16 15 14 13 12 12 11 11 11 11 11 11 12 12 13 13 13 13 14 14 15 15 15 16 17 18 14 17 17 17 18 18 18
24 27 27 29 27 25 23 22 20 19 18 16 15 14 13 12 12 11 11 11 10 10 11 11 11 12 12 12 12 13 14 14 14 15 16 16 13 15 16 16 16 17 17
24 25 27 30 28 26 25 23 22 20 19 18 16 15 14 13 12 12 11 10 10 10 10 10 10 10 11 11 11 12 13 13 12 14 16 16 13 13 15 15 15 15 16
19 25 27 30 28 27 26 24 23 21 20 19 17 16 15 14 13 12 11 11 10 9 9 8 9 9 9 9 10 11 12 11 10 12 13 14 12 12 13 13 13 14 14
18 25 26 30 29 27 26 25 24 22 21 20 19 17 16 15 14 13 12 11 10 9 8 8 7 7 7 8 8 9 11 10 9 8 10 11 9 11 12 12 12 12 13
19 24 25 29 29 28 27 25 24 23 22 21 20 19 17 16 15 14 13 12 11 10 9 7 6 6 6 6 6 7 9 9 7 5 6 9 8 10 10 10 10 11 11
18 21 21 25 27 28 27 26 25 24 23 22 21 20 18 18 17 16 14 13 12 11 9 8 6 5 5 4 5 6 8 9 8 4 3 6 7 8 8 9 9 9 9
11 15 18 19 23 24 25 26 26 25 24 23 22 21 19 18 18 17 16 14 13 12 10 9 7 6 5 4 4 5 6 8 7 4 2 4 5 6 6 7 7 7 7
13 11 16 17 19 21 22 24 25 25 24 23 22 21 20 19 18 16 16 16 15 13 12 11 9 8 7 6 5 5 6 6 6 5 1 2 3 4 4 5 5 5 6
19 17 14 17 18 19 21 21 21 22 22 22 21 21 20 17 17 15 17 17 16 15 14 13 11 10 9 7 6 6 6 7 7 6 4 2 1 2 2 3 3 4 4
18 17 17 17 19 19 18 17 16 18 19 20 22 21 19 18 17 16 15 16 16 16 14 12 11 9 9 9 9 8 8 9 8 8 6 5 3 3 2 2 3 3 3
13 18 17 16 17 20 19 17 16 15 16 17 20 22 20 16 15 15 15 16 15 14 14 13 11 11 11 12 12 11 11 11 10 10 9 8 7 6 5 5 4 4 5
15 17 16 16 17 19 18 17 18 17 18 18 20 22 22 17 14 15 15 16 17 16 15 14 13 13 13 13 14 13 13 13 13 12 12 11 10 9 8 8 7 7 7
20 19 17 19 19 18 16 15 16 20 19 20 21 23 24 22 18 15 14 15 17 18 18 17 15 13 12 12 13 14 15 15 15 15 15 14 13 13 12 11 10 10 9
20 18 19 19 17 17 16 17 18 20 21 21 22 24 25 24 21 18 15 14 17 19 18 16 15 13 10 10 9 14 14 16 16 17 18 17 17 16 15 14 13 13 12
16 16 19 18 18 18 16 16 17 19 21 22 23 24 26 26 24 20 15 15 19 18 16 11 8 6 7 7 7 8 12 13 16 18 19 19 19 18 18 17 17 16 15
17 16 18 18 19 19 15 13 15 16 19 21 22 23 25 26 26 22 18 17 18 15 13 11 8 7 8 8 8 7 7 9 13 16 17 20 21 21 21 20 19 19 18
13 14 15 17 16 14 11 8 8 9 11 17 20 22 23 25 25 23 18 16 17 10 9 8 9 8 7 7 8 9 8 8 11 13 16 19 20 22 22 21 21 19 20
8 11 14 16 15 12 9 11 12 14 12 9 14 20 22 23 24 23 16 14 14 11 13 12 9 9 9 4 4 6 6 10 14 13 15 15 18 21 21 21 21 21 20
5 8 11 13 13 14 15 13 8 8 7 8 8 14 20 22 23 23 18 11 12 11 12 12 11 8 7 7 6 3 6 6 9 14 13 13 13 16 18 21 21 21 20
2 6 9 11 13 13 12 7 3 3 2 4 8 9 14 21 23 23 21 17 13 13 14 15 14 13 11 9 8 6 5 8 4 4 8 11 11 10 12 17 20 22 22
4 3 4 6 9 10 10 9 11 11 13 13 12 11 10 17 20 23 21 20 15 14 16 16 15 14 13 12 8 10 9 5 4 5 4 5 9 11 11 12 16 20 22
6 4 2 1 4 7 9 11 11 14 14 10 7 9 11 11 16 20 21 18 16 16 17 16 15 16 15 16 12 7 11 11 10 8 11 6 4 7 9 10 11 15 20
8 7 5 2 2 4 7 9 11 14 14 11 10 11 11 10 11 15 17 17 17 17 18 18 17 18 18 18 16 12 9 8 9 11 17 15 9 6 8 10 10 13 19
Wind_Direction
188 181 176 171 169 167 164 161 157 152 147 143 136 131 125 118 111 105 100 95 90 87 84 81 77 75 73 72 72 72 71 69 63 55 49 55 64 62 62 62 57 51 54
167 176 175 172 171 170 168 164 161 157 154 149 144 139 133 127 120 113 107 102 96 91 87 83 79 77 76 74 74 74 74 71 68 58 46 37 53 63 60 58 58 55 54
163 173 175 174 173 172 170 167 165 162 160 156 152 147 141 136 129 123 116 110 104 98 92 88 83 79 77 77 77 77 76 74 68 55 38 25 34 63 61 60 58 56 53
165 173 174 176 175 174 172 170 169 167 165 162 159 154 150 145 140 134 127 119 112 104 98 93 88 83 79 78 80 81 79 77 69 48 30 21 26 62 62 60 59 57 55
168 174 176 178 177 176 175 173 172 171 169 167 164 162 158 154 149 143 137 129 122 114 106 99 94 88 83 81 83 86 85 81 69 42 28 21 21 60 63 60 59 57 55
171 175 179 180 180 179 177 176 175 175 173 172 170 168 165 162 157 152 146 141 135 127 119 111 103 96 89 86 88 94 95 90 73 47 29 19 20 59 63 60 59 57 55
172 176 183 183 183 182 181 180 179 178 178 176 175 174 172 168 165 161 158 153 148 142 135 126 117 108 99 93 93 100 109 106 94 58 27 13 25 60 61 59 57 57 55
171 176 185 186 186 185 184 183 183 182 182 181 180 180 178 175 173 171 168 165 161 156 150 143 134 124 112 103 100 105 113 118 117 82 25 7 41 59 59 56 54 54 53
172 177 188 191 189 190 189 188 187 186 186 185 185 184 183 182 181 179 177 175 173 169 165 162 157 149 137 123 116 116 117 123 128 117 25 4 44 55 56 54 51 50 49
174 183 191 194 190 191 192 193 191 191 191 190 190 189 188 188 188 187 185 184 183 181 179 179 179 179 173 161 147 137 128 130 139 134 58 9 42 48 51 49 45 44 43
187 192 192 195 192 191 192 196 195 195 195 194 194 193 193 193 193 193 187 192 192 192 192 193 196 198 198 197 187 169 151 152 161 169 209 346 36 35 41 40 34 31 31
194 195 195 195 192 189 194 199 198 197 197 196 195 194 192 190 193 193 193 200 202 201 202 204 207 209 208 211 220 199 180 182 184 193 220 257 338 358 13 16 13 7 9
195 193 197 196 193 190 194 196 196 195 195 194 193 191 187 187 192 199 201 209 210 208 207 212 217 213 213 217 224 217 208 205 206 209 224 243 257 281 300 313 320 324 329
192 198 197 195 194 195 195 196 195 194 194 192 192 190 184 186 195 202 207 213 211 205 203 211 219 223 227 229 227 224 220 218 219 222 230 243 249 259 270 277 281 287 294
201 200 197 194 196 196 196 198 200 200 199 196 194 194 192 192 199 205 211 213 212 208 206 211 220 227 232 235 234 230 227 227 228 230 234 243 248 252 259 265 268 272 276
210 205 197 198 198 196 199 202 204 204 202 198 199 201 199 200 202 203 210 213 214 212 212 214 218 223 230 233 234 233 232 232 234 235 237 242 249 251 255 259 261 263 266
212 206 200 200 198 199 201 203 205 204 203 205 206 205 205 206 205 205 209 214 216 216 216 217 222 225 230 232 235 235 234 235 236 238 239 240 243 249 253 254 256 258 260
213 207 205 202 199 202 204 203 206 204 205 210 210 209 210 211 209 208 212 216 215 213 211 212 213 216 227 227 232 235 235 235 238 239 238 238 239 241 246 251 252 254 256
213 207 203 203 202 203 202 202 203 203 208 211 211 212 212 213 211 211 216 217 211 209 212 217 213 209 221 228 234 239 238 239 240 241 238 238 236 237 238 244 249 250 252
210 205 204 204 206 199 192 191 196 205 211 212 213 215 212 212 212 213 217 215 207 208 215 216 219 214 219 222 240 250 243 241 241 240 240 239 237 235 235 235 240 246 249
197 199 202 203 204 192 191 198 204 215 214 213 216 214 212 212 210 212 219 212 208 216 220 216 218 221 227 194 230 275 268 245 243 240 238 237 236 233 231 230 231 234 240
202 206 206 206 201 199 205 207 207 213 216 216 217 217 214 214 213 215 217 216 211 218 222 217 212 221 221 189 191 223 289 292 244 237 232 232 233 230 230 230 228 228 230
255 223 216 211 205 205 203 191 186 180 236 216 219 222 217 215 216 219 220 220 216 216 225 222 214 216 226 211 198 187 213 248 298 259 234 232 228 225 229 230 228 229 228
320 274 235 218 209 204 192 192 198 211 224 226 226 225 219 216 219 220 222 221 221 221 226 224 219 218 219 227 215 221 224 199 236 295 264 237 230 228 226 227 229 228 227
359 2 337 242 218 203 197 203 210 226 235 239 230 230 228 224 223 223 223 223 225 226 227 225 221 218 220 227 222 211 228 236 231 247 272 270 258 237 228 225 227 228 227
11 20 25 16 283 221 209 214 220 232 239 244 240 237 237 235 231 227 225 226 228 229 229 227 225 223 224 226 227 221 212 216 218 224 247 257 253 236 226 224 225 228 229
Height
1557 1560 1563 1565 1567 1568 1569 1570 1571 1571 1571 1571 1571 1571 1571 1570 1570 1570 1569 1569 1568 1568 1567 1565 1564 1563 1562 1561 1560 1560 1559 1559 1558 1558 1558 1558 1558 1558 1557 1556 1556 1556 1556
1555 1557 1560 1563 1565 1567 1568 1569 1570 1570 1570 1571 1571 1571 1571 1570 1570 1570 1569 1569 1568 1568 1567 1566 1565 1564 1562 1561 1561 1560 1560 1559 1559 1559 1558 1558 1559 1558 1557 1557 1557 1556 1556
1553 1555 1558 1561 1563 1565 1567 1568 1569 1569 1570 1570 1570 1570 1570 1570 1570 1569 1569 1568 1568 1567 1567 1566 1565 1564 1563 1562 1561 1561 1560 1560 1560 1559 1559 1558 1558 1559 1558 1557 1557 1556 1556
1552 1554 1556 1559 1561 1564 1565 1566 1567 1568 1568 1569 1569 1569 1569 1569 1569 1569 1569 1568 1568 1567 1566 1566 1565 1564 1563 1562 1562 1561 1560 1560 1560 1560 1559 1559 1558 1559 1559 1558 1557 1556 1556
1550 1552 1554 1557 1559 1561 1563 1565 1566 1566 1567 1568 1568 1568 1569 1569 1569 1569 1568 1568 1567 1567 1566 1566 1565 1564 1564 1563 1562 1562 1561 1561 1560 1560 1560 1559 1558 1559 1558 1558 1557 1556 1556
1548 1550 1552 1555 1557 1559 1561 1563 1564 1565 1566 1566 1567 1567 1568 1568 1568 1568 1568 1568 1567 1567 1567 1566 1565 1565 1564 1563 1563 1562 1562 1561 1561 1561 1560 1559 1559 1559 1558 1557 1557 1556 1555
1546 1548 1550 1553 1555 1557 1559 1561 1562 1563 1564 1565 1565 1566 1567 1567 1567 1567 1567 1567 1567 1567 1567 1566 1566 1565 1564 1564 1563 1562 1562 1562 1562 1561 1560 1560 1559 1559 1558 1557 1557 1556 1555
1545 1546 1548 1550 1553 1555 1557 1558 1560 1561 1562 1563 1564 1565 1565 1566 1566 1566 1566 1566 1566 1566 1566 1566 1566 1565 1564 1564 1563 1563 1562 1562 1562 1561 1560 1560 1559 1559 1558 1557 1556 1555 1555
1543 1545 1546 1548 1550 1552 1554 1556 1558 1559 1560 1561 1562 1563 1564 1564 1565 1565 1565 1565 1566 1566 1565 1565 1565 1565 1564 1564 1563 1563 1562 1562 1561 1561 1560 1560 1559 1558 1557 1556 1556 1555 1554
1541 1542 1544 1545 1547 1549 1551 1553 1555 1557 1558 1559 1560 1561 1562 1563 1563 1564 1564 1564 1564 1564 1564 1564 1564 1564 1564 1563 1563 1562 1562 1561 1561 1560 1560 1559 1558 1558 1557 1556 1555 1554 1553
1537 1539 1541 1542 1544 1546 1548 1550 1552 1554 1555 1557 1558 1559 1560 1561 1562 1562 1563 1563 1563 1563 1563 1563 1563 1563 1563 1563 1562 1562 1561 1561 1561 1560 1559 1558 1557 1557 1556 1555 1554 1553 1552
1531 1534 1536 1538 1540 1542 1545 1547 1548 1550 1552 1553 1555 1556 1557 1559 1560 1560 1561 1561 1561 1561 1561 1561 1561 1561 1561 1561 1561 1561 1560 1560 1560 1559 1558 1557 1556 1555 1554 1553 1552 1551 1550
1528 1530 1532 1534 1536 1539 1541 1543 1544 1546 1548 1550 1551 1553 1555 1556 1557 1557 1558 1559 1559 1559 1559 1559 1559 1559 1559 1559 1559 1559 1558 1558 1558 1557 1556 1555 1554 1553 1552 1551 1550 1549 1548
1523 1525 1527 1530 1532 1534 1536 1538 1540 1542 1543 1545 1547 1549 1551 1552 1553 1554 1555 1556 1557 1557 1557 1557 1557 1557 1557 1557 1556 1556 1556 1556 1555 1555 1554 1553 1552 1551 1550 1549 1548 1547 1546
1519 1521 1522 1525 1527 1529 1532 1534 1535 1537 1539 1541 1544 1545 1547 1549 1550 1551 1552 1553 1554 1554 1554 1554 1554 1554 1554 1554 1553 1553 1553 1553 1552 1552 1551 1550 1550 1549 1548 1547 1546 1545 1543
1513 1515 1517 1519 1522 1524 1526 1528 1530 1532 1534 1537 1538 1541 1543 1545 1546 1547 1548 1549 1550 1551 1551 1551 1551 1551 1551 1550 1550 1550 1549 1549 1548 1548 1547 1547 1546 1545 1544 1543 1542 1541 1540
1508 1510 1512 1514 1517 1519 1520 1523 1525 1527 1529 1531 1533 1536 1538 1540 1541 1543 1543 1544 1546 1547 1547 1547 1547 1547 1546 1546 1546 1546 1545 1544 1544 1543 1543 1542 1542 1541 1540 1539 1538 1537 1536
1504 1506 1508 1510 1511 1513 1515 1517 1520 1522 1524 1525 1528 1530 1532 1534 1536 1537 1538 1539 1541 1542 1542 1542 1543 1542 1541 1541 1541 1541 1540 1539 1538 1538 1537 1536 1536 1536 1535 1534 1533 1532 1532
1499 1501 1503 1505 1506 1508 1511 1513 1515 1517 1518 1520 1522 1523 1525 1528 1530 1531 1532 1534 1536 1536 1536 1537 1536 1536 1536 1536 1536 1535 1534 1532 1532 1531 1530 1530 1529 1529 1529 1528 1528 1527 1526
1495 1497 1499 1501 1503 1505 1508 1510 1511 1512 1512 1514 1515 1516 1518 1520 1523 1524 1525 1527 1529 1529 1529 1530 1529 1530 1530 1530 1529 1527 1525 1524 1523 1522 1522 1522 1522 1522 1522 1522 1521 1521 1520
1492 1494 1495 1497 1499 1501 1502 1504 1505 1505 1506 1507 1508 1510 1512 1513 1515 1516 1518 1519 1520 1521 1521 1522 1523 1522 1522 1523 1522 1518 1516 1515 1513 1512 1513 1513 1513 1514 1514 1514 1514 1514 1513
1492 1492 1493 1494 1495 1497 1498 1499 1500 1502 1502 1503 1504 1505 1505 1506 1507 1508 1509 1510 1511 1512 1513 1513 1514 1514 1514 1515 1514 1512 1508 1504 1500 1502 1502 1502 1502 1504 1504 1505 1506 1506 1506
1492 1491 1491 1491 1492 1494 1495 1496 1496 1497 1497 1497 1497 1498 1499 1499 1500 1500 1500 1501 1502 1502 1502 1503 1504 1505 1504 1505 1505 1506 1503 1496 1494 1491 1490 1491 1492 1494 1495 1496 1497 1498 1498
1492 1491 1490 1490 1490 1491 1492 1492 1492 1491 1490 1490 1491 1491 1492 1492 1492 1492 1492 1492 1492 1492 1491 1492 1493 1493 1494 1493 1493 1493 1493 1492 1491 1484 1481 1482 1483 1483 1485 1487 1488 1489 1490
1492 1490 1489 1488 1488 1488 1488 1489 1488 1487 1486 1486 1485 1484 1484 1484 1484 1483 1483 1482 1482 1481 1480 1481 1482 1482 1481 1481 1481 1481 1481 1481 1480 1479 1472 1471 1472 1473 1475 1478 1479 1480 1481
1493 1491 1489 1488 1487 1487 1486 1486 1485 1483 1482 1481 1479 1478 1477 1476 1475 1474 1474 1473 1472 1471 1470 1470 1470 1470 1470 1469 1469 1469 1469 1468 1467 1467 1465 1461 1461 1462 1465 1467 1468 1470 1472